Weather in Donskoye

Russia / Lipetsk Oblast     52°36′56″N   38°58′36″E
temp.,
°C
wind,
m/s
gust,
m/s
humid.,
%
clouds,
%
prec.,
mm/h
press.,
hPa
HPBL,
m
8 may, sat
sat800:00+7sse486811 0.0 1015136
03:00+8sse51282100 0.0 1015270
06:00+8sse61481100 0.0 1014534
09:00+10sse71574100 0.4 1012672
12:00+14s91467100 0.0 10091244
15:00+13s91682100 0.9 10061131
18:00+12s81591100 2.3 10051000
21:00+11sw61190100 2.6 1005655
9 may, sun
sun900:00+9sw61192100 0.0 1006653
03:00+4wsw81295100 0.1 1009657
06:00+4wnw91596100 0.3 1011850
09:00+6nw71078100 0.3 10141085
12:00+8nw6972100 0.0 10161353
15:00+8nnw7969100 0.1 10181306
18:00+7nnw697181 0.1 10211224
21:00+4nw35815 0.1 102367
10 may, mon
mon1000:00+3nw36860 0.0 1024108
03:00+3nnw4128526 0.0 1025233
06:00+4n5127888 0.0 1027315
09:00+10n711587 0.0 10271359
12:00+12nne811475 0.0 10271680
15:00+13nne9114716 0.0 10261701
18:00+12nne7135842 0.0 10261424
21:00+9nne61565100 0.0 1026527
11 may, tue
tue1100:00+9nne81659100 0.0 1025662
03:00+9nne81660100 0.0 1025565
06:00+8nne8166699 0.0 1025557
09:00+9ne71571100 0.0 1025577
12:00+11ne61379100 0.2 1024711
15:00+14ene71280100 0.3 10241081
18:00+13ene4108346 0.0 1025591
21:00+12e1197100 4.4 102347
12 may, wed
wed1200:00+10sse3497100 6.7 1024211
03:00+9e2597100 8.7 1024213
06:00+9e369326 0.0 1024228
09:00+12e4776100 0.0 1024534
12:00+16ene566797 0.0 10231140
15:00+14ene4584100 0.1 1022618
18:00+12nne239786 0.8 1021129
21:00+13ene2598100 0.8 1020134